Zurück zum Katalog

FENGYUN 1C DEB

AktivSSO
NORAD 31553·DEBRIS·🇨🇳 China

Gestartet May 10, 1999 von Taiyuan Satellite Launch Center

Loading…

Nächste Überflüge (nächste 24 Stunden)

TLE

AktuellSource: Space-Track

Epoche: Sep 14, 2026, 03:59 UTC

1 31553U 99025BYU 26257.16651660  .00002225  00000-0  83865-3 0  9999
2 31553  98.9882 326.6255 0028168  19.1174   9.1575 14.32258725998507

Verfolge FENGYUN 1C DEB in Echtzeit mit AllMySat

Download on the App Store